User: anonymous   Login
Location: Acheville
(50.3840°N, 2.8827°E)
Time: 15:43:42
(UTC+00:00)
Language:

Cosmos 1821 Rocket - Orbit

View from above orbital plane
View from above orbital plane
View from above satellite
View from above satellite

Ground track
Ground track

The orbit data is extracted from the following two-line orbital elements,

1 17526U 87017B   22021.80446859  .00000138  00000-0  12468-3 0  9991
2 17526  82.8996 224.8958 0039380 302.2734  57.4610 13.76922567737094
Epoch (UTC): 21 January 2022 19:18:26
Eccentricity: 0.0039380
inclination: 82.8996°
perigee height: 946 km
apogee height: 1004 km
right ascension of ascending node: 224.8958°
argument of perigee: 302.2734°
revolutions per day: 13.76922567
mean anomaly at epoch: 57.4610°
orbit number at epoch: 73709

The dashed part of the orbit path shows where the satellite is in the earth's shadow,  

DLR